AEHF-3 (USA 246)

Last updated on Sun Dec 14 2025 00:02:50 GMT+0000 (Coordinated Universal Time)

1 39256U 13050A 25347.17058516 .00000041 00000+0 00000+0 0 9991 2 39256 4.8320 68.8805 0095170 184.1271 126.2749 1.00269693 43784
UTC large
Height (km)
Speed (km/s)
/
Latitude / Longitude
Inclination (degrees)
Orbital Period (minutes)
Azimuth
Elevation
Range (km)
Doppler Factor

Next 0 passes for location: London (51.5072 / 0.1276)

Sorry there are no passes over London.